User: anonymous   Login
Location: *
(33.8649°S, 62.1526°E)
Time: 16:08:49
(UTC+00:00)
Language:

Cosmos 2369 Rocket - Orbit

View from above orbital plane
View from above orbital plane
View from above satellite
View from above satellite

Ground track
Ground track

The orbit data is extracted from the following two-line orbital elements,

1 26070U 00006B   21104.57058284 -.00000297  00000-0 -12740-3 0  9995
2 26070  71.0014 260.4855 0015681  18.3357 341.8328 14.15472870 95246
Epoch (UTC): 14 April 2021 13:41:38
Eccentricity: 0.0015681
inclination: 71.0014°
perigee height: 829 km
apogee height: 852 km
right ascension of ascending node: 260.4855°
argument of perigee: 18.3357°
revolutions per day: 14.15472870
mean anomaly at epoch: 341.8328°
orbit number at epoch: 9524

The dashed part of the orbit path shows where the satellite is in the earth's shadow,  

DLR